Weather History for Ottumwa, IA

Change the Weather History Date:

Thursday, August 7, 2014

  Actual Average Record
Temperature  
Mean Temperature 68 °F 74 °F  
Max Temperature 71 °F 85 °F 107 °F (1934)
Min Temperature 65 °F 64 °F 49 °F (1989)
Degree Days  
Heating Degree Days 0 0  
Month to date heating degree days 0 0  
Since 1 June heating degree days 22 23  
Since 1 July heating degree days 13 2  
Cooling Degree Days 3 9  
Month to date cooling degree days 44 65  
Year to date cooling degree days 533 644  
Since 1 June cooling degree days 422 580  
Growing Degree Days 18 (Base 50)    
Moisture  
Dew Point 66 °F    
Average Humidity 87    
Maximum Humidity 93    
Minimum Humidity 81    
Precipitation  
Precipitation 0.04 in 0.15 in 1.48 in (1977)
Month to date precipitation 0.66 1.00  
Year to date precipitation 24.77 23.09  
Sea Level Pressure  
Sea Level Pressure 29.96 in    
Wind  
Wind Speed 11 mph (East)    
Max Wind Speed 20 mph    
Max Gust Speed 25 mph    
Visibility 7 miles    
Events Rain    
T = Trace of Precipitation, MM = Missing Value Source: NWS Daily Summary

Daily Weather History Graph

Daily Weather History Graph

Search for Another Location

Airport:

Trip Planner

Search our weather history database for the weather conditions in past years. The results will help you decide how hot, cold, wet, or windy it might be!

Date:

Astronomy

Aug. 07, 2014 Rise Set
Actual Time 6:11 AM CDT 8:19 PM CDT
Civil Twilight 5:41 AM CDT 8:49 PM CDT
Nautical Twilight 5:03 AM CDT 9:26 PM CDT
Astronomical Twilight 4:22 AM CDT 10:06 PM CDT
Moon 5:36 PM CDT (8/7) 2:41 AM CDT (8/7)
Length of Visible Light 15h 08m
Length of Day
14h 07m
Waxing Gibbous, 87% of the Moon is Illuminated
Aug 7
Waxing Gibbous
Aug 10
Full
Aug 17
Last Quarter
Aug 25
New
Sep 2
First Quarter

Hourly Weather History & Observations

Time (CDT) Temp. Dew Point Humidity Pressure Visibility Wind Dir Wind Speed Gust Speed Precip Events Conditions
12:53 AM 66.9 °F 64.9 °F 93% 29.96 in 8.0 mi East 12.7 mph - 0.00 in   Mostly Cloudy
1:53 AM 68.0 °F 66.0 °F 93% 29.96 in 6.0 mi East 11.5 mph - N/A   Overcast
2:39 AM 68.0 °F 66.0 °F 93% 29.98 in 6.0 mi East 10.4 mph - N/A   Overcast
2:53 AM 68.0 °F 66.0 °F 93% 29.96 in 6.0 mi East 9.2 mph - 0.00 in Rain Light Rain
3:07 AM 68.0 °F 66.0 °F 93% 29.97 in 6.0 mi East 9.2 mph - 0.00 in   Overcast
3:24 AM 68.0 °F 66.0 °F 93% 29.97 in 5.0 mi ENE 9.2 mph - 0.00 in   Overcast
3:53 AM 68.0 °F 66.0 °F 93% 29.95 in 5.0 mi East 10.4 mph - 0.00 in   Overcast
4:53 AM 68.0 °F 66.0 °F 93% 29.95 in 5.0 mi East 10.4 mph - 0.00 in Rain Light Rain
5:02 AM 68.0 °F 66.0 °F 93% 29.96 in 5.0 mi East 12.7 mph - 0.01 in Rain Light Rain
5:53 AM 68.0 °F 66.0 °F 93% 29.95 in 5.0 mi East 12.7 mph - 0.03 in Rain Light Rain
6:32 AM 68.0 °F 66.0 °F 93% 29.97 in 4.0 mi ESE 9.2 mph - 0.00 in   Overcast
6:49 AM 68.0 °F 66.2 °F 94% 29.96 in 2.5 mi East 9.2 mph - 0.00 in   Overcast
6:53 AM 68.0 °F 66.0 °F 93% 29.95 in 2.5 mi ESE 10.4 mph - 0.00 in   Overcast
7:09 AM 68.0 °F 66.0 °F 93% 29.96 in 3.0 mi East 10.4 mph - N/A   Overcast
7:53 AM 68.0 °F 66.0 °F 93% 29.95 in 4.0 mi East 11.5 mph - N/A   Overcast
8:53 AM 68.0 °F 66.0 °F 93% 29.95 in 4.0 mi East 10.4 mph - N/A   Overcast
9:53 AM 69.1 °F 66.0 °F 90% 29.97 in 4.0 mi ESE 9.2 mph - N/A   Overcast
10:53 AM 69.1 °F 66.0 °F 90% 29.97 in 5.0 mi East 12.7 mph - N/A   Overcast
11:53 AM 69.1 °F 64.9 °F 87% 29.96 in 8.0 mi East 11.5 mph - N/A   Overcast
12:53 PM 69.1 °F 66.0 °F 90% 29.97 in 10.0 mi East 10.4 mph - N/A   Overcast
1:16 PM 69.1 °F 66.0 °F 90% 29.98 in 1.8 mi East 11.5 mph - 0.00 in Rain Light Rain
1:31 PM 69.1 °F 66.0 °F 90% 29.97 in 3.0 mi East 15.0 mph 21.9 mph 0.01 in Rain Light Rain
1:53 PM 69.1 °F 66.9 °F 93% 29.96 in 5.0 mi East 15.0 mph - 0.01 in Rain Light Rain
2:53 PM 70.0 °F 66.0 °F 87% 29.95 in 10.0 mi East 19.6 mph - 0.00 in   Overcast
3:53 PM 70.0 °F 66.0 °F 87% 29.95 in 10.0 mi East 13.8 mph - N/A   Overcast
4:09 PM 70.0 °F 66.0 °F 87% 29.95 in 10.0 mi East 13.8 mph - N/A   Overcast
4:38 PM 70.0 °F 66.0 °F 87% 29.96 in 9.0 mi East 12.7 mph - N/A   Overcast
4:53 PM 70.0 °F 66.0 °F 87% 29.95 in 10.0 mi East 12.7 mph - N/A   Overcast
5:43 PM 70.0 °F 66.0 °F 87% 29.95 in 10.0 mi East 13.8 mph - N/A   Overcast
5:50 PM 69.8 °F 66.2 °F 88% 29.95 in 10.0 mi East 13.8 mph - N/A   Overcast
5:53 PM 70.0 °F 66.0 °F 87% 29.93 in 10.0 mi East 12.7 mph - N/A   Overcast
6:34 PM 70.0 °F 66.0 °F 87% 29.95 in 9.0 mi East 13.8 mph - N/A   Overcast
6:53 PM 70.0 °F 66.0 °F 87% 29.94 in 9.0 mi ENE 12.7 mph - N/A   Overcast
7:18 PM 70.0 °F 66.0 °F 87% 29.96 in 9.0 mi East 10.4 mph - N/A   Overcast
7:49 PM 69.8 °F 64.4 °F 83% 29.95 in 8.0 mi East 12.7 mph - N/A   Overcast
7:53 PM 70.0 °F 66.0 °F 87% 29.94 in 8.0 mi East 11.5 mph - N/A   Overcast
8:10 PM 69.1 °F 64.9 °F 87% 29.95 in 7.0 mi East 12.7 mph - N/A   Overcast
8:53 PM 69.1 °F 64.9 °F 87% 29.95 in 9.0 mi East 10.4 mph - N/A   Mostly Cloudy
9:53 PM 66.9 °F 64.9 °F 93% 29.96 in 8.0 mi East 8.1 mph - N/A   Clear
10:53 PM 66.9 °F 64.0 °F 90% 29.96 in 9.0 mi East 8.1 mph - N/A   Clear
11:53 PM 68.0 °F 63.0 °F 84% 29.95 in 8.0 mi East 9.2 mph - N/A   Clear